User: anonymous   Login
Location: Albany
(35.0000°S, 118.0000°E)
Time: 00:49:46
(UTC-04:00)
Language:

CZ-4B R/B - Orbit

View from above orbital plane
View from above orbital plane
View from above satellite
View from above satellite

Ground track
Ground track

The orbit data is extracted from the following two-line orbital elements,

1 33410U 08053C   18116.48494799 +.00000652 +00000-0 +52218-4 0  9993
2 33410 097.7762 090.1445 0117785 219.5616 139.6968 14.98642365517488
Epoch (UTC): 26 April 2018 11:38:19
Eccentricity: 0.0117785
inclination: 97.7762°
perigee height: 489 km
apogee height: 653 km
right ascension of ascending node: 90.1445°
argument of perigee: 219.5616°
revolutions per day: 14.98642365
mean anomaly at epoch: 139.6968°
orbit number at epoch: 51748

The dashed part of the orbit path shows where the satellite is in the earth's shadow,  

DLR